FDX121 KMEM-PANC

Flight info

Callsign FDX121
Flight time N/A
Altitude 32000
Route JTEEE5 ODATE DCT KK51I DCT HIBAV DCT KP75E DCT KP87C DCT KP12Y DCT ISN DCT ITREK DCT GUDOG DCT YEGGA DCT YQU DCT 57N125W DCT MITOM DCT DEEJA NCA10 YAK J501 JOH PTERS3
Aircraft MD11/H-SDE1E2E3FGHIJ2J3J4J5M1RWXY/LB1D1

Departure

Time 2026-05-06 15:44
Airport Memphis International Airport (KMEM)

Arrival

Time N/A
Airport Ted Stevens Anchorage International Airport (PANC)
Time Latitude Longitude Altitude Speed Heading
2026-05-06 15:30 35.06265 -89.97435 338 ft 0 kts 359°
2026-05-06 15:32 35.06249 -89.97435 335 ft 2 kts
2026-05-06 15:32 35.06233 -89.97435 335 ft 2 kts
2026-05-06 15:32 35.06217 -89.97436 335 ft 2 kts
2026-05-06 15:33 35.06200 -89.97437 333 ft 2 kts 341°
2026-05-06 15:33 35.06192 -89.97430 333 ft 0 kts 281°
2026-05-06 15:35 35.06194 -89.97448 334 ft 5 kts 279°
2026-05-06 15:35 35.06198 -89.97478 333 ft 4 kts 278°
2026-05-06 15:36 35.06198 -89.97516 334 ft 3 kts 258°
2026-05-06 15:36 35.06178 -89.97540 333 ft 5 kts 208°
2026-05-06 15:36 35.06136 -89.97542 333 ft 8 kts 180°
2026-05-06 15:36 35.06066 -89.97541 334 ft 13 kts 180°
2026-05-06 15:37 35.05963 -89.97530 334 ft 16 kts 167°
2026-05-06 15:37 35.05873 -89.97506 336 ft 11 kts 167°
2026-05-06 15:37 35.05779 -89.97484 334 ft 17 kts 174°
2026-05-06 15:37 35.05644 -89.97488 335 ft 21 kts 181°
2026-05-06 15:38 35.05509 -89.97490 334 ft 17 kts 180°
2026-05-06 15:38 35.05406 -89.97484 331 ft 12 kts 169°
2026-05-06 15:38 35.05330 -89.97477 333 ft 12 kts 180°
2026-05-06 15:38 35.05236 -89.97479 332 ft 15 kts 180°
2026-05-06 15:39 35.05117 -89.97476 333 ft 18 kts 178°
2026-05-06 15:39 35.04977 -89.97475 332 ft 23 kts 179°
2026-05-06 15:39 35.04787 -89.97470 332 ft 31 kts 179°
2026-05-06 15:39 35.04544 -89.97464 333 ft 39 kts 178°
2026-05-06 15:40 35.04271 -89.97455 334 ft 37 kts 179°
2026-05-06 15:40 35.04024 -89.97455 333 ft 33 kts 181°
2026-05-06 15:40 35.03807 -89.97463 332 ft 30 kts 182°
2026-05-06 15:40 35.03608 -89.97453 332 ft 27 kts 176°
2026-05-06 15:41 35.03447 -89.97438 332 ft 19 kts 176°
2026-05-06 15:41 35.03259 -89.97437 333 ft 33 kts 180°
2026-05-06 15:41 35.03055 -89.97435 332 ft 26 kts 179°
2026-05-06 15:41 35.02893 -89.97432 333 ft 23 kts 181°
2026-05-06 15:42 35.02716 -89.97436 332 ft 25 kts 179°
2026-05-06 15:42 35.02562 -89.97424 333 ft 19 kts 175°
2026-05-06 15:42 35.02450 -89.97428 334 ft 12 kts 196°
2026-05-06 15:42 35.02426 -89.97485 329 ft 6 kts 273°
2026-05-06 15:43 35.02440 -89.97537 327 ft 9 kts 306°
2026-05-06 15:43 35.02522 -89.97557 330 ft 24 kts 357°
2026-05-06 15:43 35.02978 -89.97563 330 ft 106 kts 360°
2026-05-06 15:43 35.03950 -89.97582 332 ft 172 kts 360°
2026-05-06 15:44 35.05176 -89.97590 1036 ft 171 kts
2026-05-06 15:44 35.06386 -89.97645 1945 ft 173 kts 358°
2026-05-06 15:44 35.07638 -89.97717 2580 ft 185 kts 358°
2026-05-06 15:44 35.08936 -89.97851 3235 ft 193 kts 345°
2026-05-06 15:45 35.10266 -89.98245 3665 ft 212 kts 341°
2026-05-06 15:45 35.11783 -89.98748 3806 ft 239 kts 341°
2026-05-06 15:45 35.13474 -89.99307 3937 ft 263 kts 342°
2026-05-06 15:45 35.15350 -89.99787 4161 ft 284 kts 346°
2026-05-06 15:46 35.17308 -90.00189 5031 ft 287 kts 345°
2026-05-06 15:46 35.19291 -90.00580 5946 ft 290 kts 345°
2026-05-06 15:46 35.21308 -90.00966 6757 ft 296 kts 346°
2026-05-06 15:46 35.23376 -90.01204 7557 ft 301 kts 349°
2026-05-06 15:47 35.25482 -90.01351 8354 ft 304 kts 350°
2026-05-06 15:47 35.27580 -90.01475 9098 ft 308 kts 350°
2026-05-06 15:47 35.29736 -90.01599 9839 ft 311 kts 350°
2026-05-06 15:47 35.31945 -90.01731 10217 ft 328 kts 350°
2026-05-06 15:48 35.34311 -90.01885 10350 ft 352 kts 350°
2026-05-06 15:48 35.36828 -90.02043 10744 ft 365 kts 350°
2026-05-06 15:48 35.39354 -90.02191 11397 ft 371 kts 349°
2026-05-06 15:48 35.41959 -90.02342 12048 ft 377 kts 349°
2026-05-06 15:49 35.44600 -90.02498 12691 ft 382 kts 348°
2026-05-06 15:49 35.47283 -90.02657 13318 ft 387 kts 348°
2026-05-06 15:49 35.49998 -90.02820 13917 ft 392 kts 347°
2026-05-06 15:49 35.52743 -90.02986 14493 ft 395 kts 347°
2026-05-06 15:50 35.55470 -90.03149 15060 ft 398 kts 347°
2026-05-06 15:50 35.58257 -90.03317 15619 ft 401 kts 347°
2026-05-06 15:50 35.61062 -90.03487 16185 ft 404 kts 347°
2026-05-06 15:50 35.63850 -90.03678 16716 ft 406 kts 346°
2026-05-06 15:51 35.66686 -90.03908 17267 ft 408 kts 345°
2026-05-06 15:51 35.69535 -90.04154 17799 ft 411 kts 345°
2026-05-06 15:51 35.71433 -90.04322 18138 ft 413 kts 345°
2026-05-06 15:51 35.74320 -90.04577 18591 ft 416 kts 345°
2026-05-06 15:52 35.77234 -90.04839 19020 ft 418 kts 344°
2026-05-06 15:52 35.80106 -90.05306 19432 ft 411 kts 336°
2026-05-06 15:52 35.82757 -90.06316 19832 ft 397 kts 325°
2026-05-06 15:52 35.85186 -90.07869 20226 ft 390 kts 318°
2026-05-06 15:53 35.87485 -90.09649 20656 ft 389 kts 316°
2026-05-06 15:53 35.89756 -90.11495 21068 ft 391 kts 316°
2026-05-06 15:53 35.92039 -90.13345 21495 ft 394 kts 316°
2026-05-06 15:53 35.94360 -90.15197 21933 ft 397 kts 316°
2026-05-06 15:54 35.96672 -90.17015 22369 ft 400 kts 316°
2026-05-06 15:54 35.99033 -90.18852 22811 ft 403 kts 316°
2026-05-06 15:54 36.01424 -90.20702 23270 ft 405 kts 317°
2026-05-06 15:54 36.03830 -90.22559 23697 ft 408 kts 317°
2026-05-06 15:55 36.06276 -90.24389 24073 ft 412 kts 318°
2026-05-06 15:55 36.08776 -90.26174 24499 ft 415 kts 319°
2026-05-06 15:55 36.11303 -90.27940 24897 ft 418 kts 319°
2026-05-06 15:55 36.13821 -90.29687 25305 ft 420 kts 319°
2026-05-06 15:56 36.16383 -90.31466 25718 ft 422 kts 319°
2026-05-06 15:56 36.18951 -90.33253 26128 ft 424 kts 319°
2026-05-06 15:56 36.21534 -90.35056 26532 ft 426 kts 319°
2026-05-06 15:56 36.24129 -90.36870 26932 ft 428 kts 319°
2026-05-06 15:57 36.26698 -90.38670 27316 ft 430 kts 318°
2026-05-06 15:57 36.29319 -90.40508 27710 ft 432 kts 318°
2026-05-06 15:57 36.31945 -90.42350 28107 ft 434 kts 318°
2026-05-06 15:57 36.34593 -90.44210 28474 ft 436 kts 318°
2026-05-06 15:58 36.37220 -90.46057 28858 ft 439 kts 318°
2026-05-06 15:58 36.39894 -90.47938 29238 ft 441 kts 317°
2026-05-06 15:58 36.42573 -90.49824 29594 ft 443 kts 317°
2026-05-06 15:58 36.45266 -90.51722 29947 ft 445 kts 317°
2026-05-06 15:59 36.47970 -90.53628 30249 ft 447 kts 317°
2026-05-06 15:59 36.50653 -90.55521 30539 ft 448 kts 317°
2026-05-06 15:59 36.53373 -90.57440 30830 ft 448 kts 317°
2026-05-06 15:59 36.56087 -90.59354 31190 ft 447 kts 317°
2026-05-06 16:00 36.58790 -90.61260 31556 ft 444 kts 317°
2026-05-06 16:00 36.61450 -90.63137 31921 ft 442 kts 316°
2026-05-06 16:00 36.64125 -90.65030 32039 ft 440 kts 316°
2026-05-06 16:00 36.66798 -90.66930 32063 ft 442 kts 316°
2026-05-06 16:01 36.72168 -90.70756 32075 ft 446 kts 316°
2026-05-06 16:01 36.77539 -90.74573 32076 ft 446 kts 316°
2026-05-06 16:02 36.82933 -90.78429 32077 ft 446 kts 316°
2026-05-06 16:02 36.88330 -90.82293 32077 ft 446 kts 316°
2026-05-06 16:03 36.93698 -90.86133 32082 ft 446 kts 316°
2026-05-06 16:03 36.99107 -90.90005 32078 ft 447 kts 316°
2026-05-06 16:04 37.04482 -90.93860 32086 ft 447 kts 316°
2026-05-06 16:04 37.09902 -90.97752 32089 ft 447 kts 316°
2026-05-06 16:05 37.15277 -91.01618 32092 ft 447 kts 316°
2026-05-06 16:05 37.20682 -91.05513 32089 ft 447 kts 316°
2026-05-06 16:06 37.26076 -91.09406 32092 ft 447 kts 316°
2026-05-06 16:06 37.31440 -91.13284 32091 ft 447 kts 316°
2026-05-06 16:07 37.36837 -91.17192 32103 ft 447 kts 316°
2026-05-06 16:07 37.42237 -91.21110 32095 ft 447 kts 316°
2026-05-06 16:08 37.47638 -91.25033 32091 ft 447 kts 316°
2026-05-06 16:08 37.53000 -91.28944 32096 ft 446 kts 316°
2026-05-06 16:09 37.58385 -91.32889 32090 ft 447 kts 316°
2026-05-06 16:09 37.63747 -91.36811 32090 ft 447 kts 316°
2026-05-06 16:10 37.69153 -91.40754 32092 ft 447 kts 316°
2026-05-06 16:10 37.74548 -91.44712 32094 ft 447 kts 316°
2026-05-06 16:11 37.79907 -91.48652 32094 ft 446 kts 316°
2026-05-06 16:11 37.85284 -91.52610 32089 ft 447 kts 316°
2026-05-06 16:12 37.90656 -91.56567 32095 ft 446 kts 316°
2026-05-06 16:12 37.95994 -91.60504 32098 ft 446 kts 316°
2026-05-06 16:13 38.01369 -91.64477 32104 ft 446 kts 316°
2026-05-06 16:13 38.06739 -91.68453 32102 ft 445 kts 316°
2026-05-06 16:14 38.12062 -91.72400 32105 ft 445 kts 316°
2026-05-06 16:14 38.17408 -91.76371 32107 ft 444 kts 316°
2026-05-06 16:15 38.22753 -91.80351 32106 ft 443 kts 315°
2026-05-06 16:15 38.28040 -91.84314 32104 ft 443 kts 315°
2026-05-06 16:16 38.33354 -91.88295 32094 ft 442 kts 316°
2026-05-06 16:16 38.38641 -91.92243 32091 ft 442 kts 316°
2026-05-06 16:17 38.43955 -91.96212 32094 ft 441 kts 316°
2026-05-06 16:17 38.49259 -92.00190 32104 ft 441 kts 316°
2026-05-06 16:18 38.54523 -92.04149 32114 ft 440 kts 315°
2026-05-06 16:18 38.59775 -92.08179 32113 ft 435 kts 313°
2026-05-06 16:19 38.64677 -92.12549 32114 ft 428 kts 310°
2026-05-06 16:19 38.69490 -92.17073 32103 ft 428 kts 310°
2026-05-06 16:20 38.74305 -92.21582 32110 ft 428 kts 311°
2026-05-06 16:20 38.79106 -92.26051 32111 ft 428 kts 311°
2026-05-06 16:21 38.83931 -92.30543 32115 ft 427 kts 310°
2026-05-06 16:21 38.88744 -92.35030 32113 ft 427 kts 311°
2026-05-06 16:22 38.93518 -92.39487 32115 ft 426 kts 311°
2026-05-06 16:22 38.98321 -92.43980 32124 ft 426 kts 311°
2026-05-06 16:23 39.03114 -92.48471 32123 ft 426 kts 311°
2026-05-06 16:23 39.07914 -92.52975 32122 ft 426 kts 311°
2026-05-06 16:24 39.12667 -92.57443 32124 ft 425 kts 311°
2026-05-06 16:24 39.17446 -92.61944 32125 ft 425 kts 311°
2026-05-06 16:25 39.22228 -92.66456 32122 ft 425 kts 311°
2026-05-06 16:25 39.26974 -92.70945 32123 ft 425 kts 311°
2026-05-06 16:26 39.31735 -92.75481 32123 ft 424 kts 311°
2026-05-06 16:26 39.36512 -92.80028 32122 ft 425 kts 311°
2026-05-06 16:27 39.41251 -92.84533 32122 ft 425 kts 311°
2026-05-06 16:27 39.45215 -92.88305 32121 ft 425 kts 311°
2026-05-06 16:28 39.49988 -92.92853 32123 ft 425 kts 311°
2026-05-06 16:28 39.54757 -92.97405 32126 ft 425 kts 311°
2026-05-06 16:29 39.59491 -93.01933 32114 ft 425 kts 311°